Location: Iesi
(43.5167°N, 13.2333°E)
Time: 03:26:50
(UTC+00:00)

Cosmos 1190 Rocket - Pass Details

Date: 08 August 2020
Orbit: 757 x 780 km, 74.1° (Epoch: 27 September)

Event Time Altitude Azimuth Distance (km) Brightness Sun altitude
Rises 20:13:57 0° 204° (SSW) 3,224 7.0 -18.0°
Reaches altitude 10° 20:16:19 10° 206° (SSW) 2,306 6.3 -18.3°
Maximum altitude 20:21:33 73° 291° (WNW) 810 4.2 -18.9°
Drops below altitude 10° 20:26:52 10° 17° (NNE) 2,336 6.9 -19.6°
Sets 20:29:16 0° 19° (NNE) 3,270 7.7 -19.9°
